TimeHST,TemperatureF,Dew PointF,Humidity,Sea Level PressureIn,VisibilityMPH,Wind Direction,Wind SpeedMPH,Gust SpeedMPH,PrecipitationIn,Events,Conditions,WindDirDegrees,DateUTC
12:53 AM,75.0,66.9,76,30.02,10.0,East,5.8,-,N/A,,Overcast,100,2013-05-26 10:53:00
1:53 AM,73.9,69.1,85,30.00,10.0,ESE,6.9,-,N/A,,Overcast,110,2013-05-26 11:53:00
2:53 AM,73.9,68.0,82,29.99,10.0,NE,3.5,-,N/A,,Mostly Cloudy,50,2013-05-26 12:53:00
3:53 AM,75.0,66.9,76,29.99,10.0,ENE,4.6,-,N/A,,Overcast,60,2013-05-26 13:53:00
4:53 AM,73.0,66.9,81,30.00,10.0,NE,3.5,-,N/A,,Overcast,50,2013-05-26 14:53:00
5:53 AM,75.0,68.0,79,30.01,10.0,SE,4.6,-,0.00,,Overcast,140,2013-05-26 15:53:00
6:53 AM,73.9,69.1,85,30.03,10.0,ESE,5.8,-,0.00,,Overcast,110,2013-05-26 16:53:00
7:53 AM,75.9,71.1,85,30.04,10.0,Calm,Calm,-,N/A,,Overcast,0,2013-05-26 17:53:00
8:53 AM,78.1,68.0,71,30.04,10.0,WSW,4.6,-,N/A,,Mostly Cloudy,250,2013-05-26 18:53:00
9:53 AM,80.1,69.1,69,30.04,10.0,South,6.9,-,N/A,,Overcast,190,2013-05-26 19:53:00
10:53 AM,81.0,69.1,67,30.04,10.0,SW,9.2,-,N/A,,Mostly Cloudy,220,2013-05-26 20:53:00
11:53 AM,82.9,70.0,65,30.02,10.0,SSW,11.5,-,N/A,,Partly Cloudy,210,2013-05-26 21:53:00
12:53 PM,82.0,68.0,62,30.00,10.0,South,11.5,-,N/A,,Mostly Cloudy,170,2013-05-26 22:53:00
1:53 PM,82.9,70.0,65,29.99,10.0,South,12.7,-,N/A,,Overcast,190,2013-05-26 23:53:00
2:53 PM,84.0,70.0,63,29.98,10.0,SSW,11.5,-,N/A,,Overcast,200,2013-05-27 00:53:00
3:53 PM,81.0,70.0,69,29.98,10.0,SSW,12.7,-,0.00,Rain,Light Rain,200,2013-05-27 01:53:00
4:53 PM,80.1,69.1,69,29.98,10.0,SE,10.4,-,0.00,,Overcast,130,2013-05-27 02:53:00
5:53 PM,80.1,69.1,69,29.99,10.0,SSW,8.1,-,N/A,,Scattered Clouds,210,2013-05-27 03:53:00
6:53 PM,79.0,68.0,69,30.01,10.0,ESE,5.8,-,N/A,,Clear,110,2013-05-27 04:53:00
7:53 PM,79.0,61.0,54,30.02,10.0,ENE,9.2,-,N/A,,Clear,60,2013-05-27 05:53:00
8:53 PM,77.0,57.9,52,30.04,10.0,NNE,17.3,-,N/A,,Clear,30,2013-05-27 06:53:00
9:53 PM,75.9,59.0,56,30.06,10.0,NNE,10.4,-,N/A,,Clear,20,2013-05-27 07:53:00
10:53 PM,75.9,59.0,56,30.06,10.0,NE,12.7,-,N/A,,Partly Cloudy,40,2013-05-27 08:53:00
11:53 PM,75.9,60.1,58,30.05,10.0,ENE,12.7,-,N/A,,Scattered Clouds,60,2013-05-27 09:53:00